TimePDT,TemperatureF,Dew PointF,Humidity,Sea Level PressureIn,VisibilityMPH,Wind Direction,Wind SpeedMPH,Gust SpeedMPH,PrecipitationIn,Events,Conditions,WindDirDegrees,DateUTC
12:56 AM,66.9,59.0,76,29.85,10.0,SW,3.5,-,0.00,,Overcast,220,2013-08-28 07:56:00
1:56 AM,64.9,60.1,84,29.84,10.0,Calm,Calm,-,0.01,Rain,Light Rain,0,2013-08-28 08:56:00
2:56 AM,63.0,60.1,90,29.84,10.0,SE,4.6,-,0.01,,Mostly Cloudy,130,2013-08-28 09:56:00
3:56 AM,63.0,60.1,90,29.84,10.0,Calm,Calm,-,N/A,,Clear,0,2013-08-28 10:56:00
4:56 AM,61.0,59.0,93,29.83,10.0,SE,3.5,-,N/A,,Clear,130,2013-08-28 11:56:00
5:56 AM,60.1,59.0,96,29.84,10.0,Calm,Calm,-,N/A,,Partly Cloudy,0,2013-08-28 12:56:00
6:56 AM,60.1,59.0,96,29.85,10.0,Calm,Calm,-,N/A,,Scattered Clouds,0,2013-08-28 13:56:00
7:56 AM,64.9,61.0,87,29.86,10.0,Calm,Calm,-,N/A,,Clear,0,2013-08-28 14:56:00
8:56 AM,66.9,61.0,81,29.87,10.0,Calm,Calm,-,N/A,,Scattered Clouds,0,2013-08-28 15:56:00
9:04 AM,68.0,60.8,78,29.87,10.0,SW,4.6,-,N/A,,Mostly Cloudy,220,2013-08-28 16:04:00
9:56 AM,72.0,60.1,66,29.87,10.0,Calm,Calm,-,N/A,,Mostly Cloudy,0,2013-08-28 16:56:00
10:56 AM,73.9,61.0,64,29.87,10.0,Variable,4.6,-,N/A,,Scattered Clouds,0,2013-08-28 17:56:00
11:56 AM,75.0,61.0,62,29.87,10.0,Variable,4.6,-,N/A,,Scattered Clouds,0,2013-08-28 18:56:00
12:56 PM,77.0,60.1,56,29.86,10.0,Calm,Calm,-,N/A,,Partly Cloudy,0,2013-08-28 19:56:00
1:56 PM,80.1,59.0,48,29.85,10.0,Calm,Calm,-,N/A,,Partly Cloudy,0,2013-08-28 20:56:00
2:56 PM,80.1,59.0,48,29.85,10.0,West,6.9,-,N/A,,Partly Cloudy,270,2013-08-28 21:56:00
3:56 PM,80.1,57.9,47,29.84,10.0,West,5.8,-,N/A,,Clear,260,2013-08-28 22:56:00
4:56 PM,80.1,59.0,48,29.85,10.0,WSW,4.6,-,N/A,,Clear,250,2013-08-28 23:56:00
5:56 PM,80.1,59.0,48,29.85,10.0,West,5.8,-,N/A,,Clear,270,2013-08-29 00:56:00
6:56 PM,78.1,59.0,52,29.85,10.0,West,11.5,-,N/A,,Partly Cloudy,270,2013-08-29 01:56:00
7:56 PM,75.9,59.0,56,29.86,10.0,WNW,5.8,-,N/A,,Clear,290,2013-08-29 02:56:00
8:56 PM,72.0,61.0,68,29.88,10.0,North,5.8,-,N/A,,Partly Cloudy,350,2013-08-29 03:56:00
9:56 PM,70.0,60.1,71,29.89,10.0,Calm,Calm,-,N/A,,Clear,0,2013-08-29 04:56:00
10:56 PM,69.1,60.1,73,29.90,10.0,West,3.5,-,N/A,,Mostly Cloudy,260,2013-08-29 05:56:00
11:56 PM,66.9,63.0,87,29.89,10.0,Calm,Calm,-,0.01,,Partly Cloudy,0,2013-08-29 06:56:00